Tracking 30986 objects as of 9-Jul-2025
HD Live streaming from Space Station
objects crossing your sky now

STARLINK-4092

Track STARLINK-4092 now!
10-day predictions
STARLINK-4092 is classified as:


NORAD ID: 52838
Int'l Code: 2022-062J
Perigee: 545.8 km
Apogee: 548.0 km
Inclination: 53.2 °
Period: 95.4 minutes
Semi major axis: 6917 km
RCS: Unknown
Launch date: June 17, 2022
Source: United States (US)
Launch site: AIR FORCE EASTERN TEST RANGE (AFETR)
Your satellite tracking list
Your tracking list is empty




NASA's NSSDC Master Catalog

Two Line Element Set (TLE):
1 52838U 22062J   25189.98664413  .00000406  00000-0  43630-4 0  9994
2 52838  53.2183  48.1349 0001562  93.5839 266.5331 15.08840505169480
Source of the keplerian elements: AFSPC